| time (UTC) | temp F | wind direction | speed MPH | gust MPH | rain 1hr in | rain 24hr in | rain mn in | humidity % | barometer mb |
| 20260508194540 | 69 | 25 | 2.0 | 13.0 | 0.00 | 0.00 | 0.00 | 48 | 1015.3 |
| 20260508193051 | 68 | 70 | 4.0 | 14.0 | 0.00 | 0.00 | 0.00 | 48 | 1015.7 |
| 20260508191538 | 68 | 65 | 7.0 | 12.0 | 0.00 | 0.00 | 0.00 | 47 | 1016.0 |
| 20260508190049 | 69 | 19 | 5.0 | 13.0 | 0.00 | 0.00 | 0.00 | 48 | 1016.2 |
| 20260508184542 | 68 | 314 | 5.0 | 17.0 | 0.00 | 0.00 | 0.00 | 46 | 1016.3 |
| 20260508183040 | 67 | 25 | 6.0 | 10.0 | 0.00 | 0.00 | 0.00 | 48 | 1016.6 |
| 20260508181539 | 66 | 58 | 9.0 | 19.0 | 0.00 | 0.00 | 0.00 | 50 | 1016.6 |
| 20260508180039 | 67 | 359 | 5.0 | 13.0 | 0.00 | 0.00 | 0.00 | 49 | 1017.1 |
| 20260508174543 | 66 | 20 | 4.0 | 13.0 | 0.00 | 0.00 | 0.00 | 50 | 1017.1 |
| 20260508173044 | 65 | 88 | 6.0 | 13.0 | 0.00 | 0.00 | 0.00 | 50 | 1017.3 |
| 20260508171550 | 66 | 350 | 7.0 | 12.0 | 0.00 | 0.00 | 0.00 | 51 | 1017.5 |
| 20260508170043 | 65 | 307 | 2.0 | 7.0 | 0.00 | 0.00 | 0.00 | 53 | 1017.9 |
| 20260508164540 | 66 | 12 | 1.0 | 9.0 | 0.00 | 0.00 | 0.00 | 52 | 1018.0 |
| 20260508163045 | 65 | 13 | 5.0 | 8.0 | 0.00 | 0.00 | 0.00 | 49 | 1018.1 |
| 20260508161549 | 66 | 90 | 1.0 | 8.0 | 0.00 | 0.00 | 0.00 | 51 | 1018.2 |
| 20260508160041 | 66 | 334 | 4.0 | 14.0 | 0.00 | 0.00 | 0.00 | 51 | 1018.4 |
| 20260508154550 | 65 | 81 | 1.0 | 10.0 | 0.00 | 0.00 | 0.00 | 52 | 1018.8 |
| 20260508153039 | 64 | 45 | 3.0 | 11.0 | 0.00 | 0.00 | 0.00 | 52 | 1018.8 |
| 20260508151545 | 65 | 340 | 2.0 | 7.0 | 0.00 | 0.00 | 0.00 | 52 | 1018.7 |
| 20260508150044 | 63 | 357 | 2.0 | 6.0 | 0.00 | 0.00 | 0.00 | 54 | 1018.8 |
| 20260508144541 | 62 | 0 | 0.0 | 3.0 | 0.00 | 0.00 | 0.00 | 54 | 1018.9 |
| 20260508143040 | 62 | 1 | 1.0 | 4.0 | 0.00 | 0.00 | 0.00 | 55 | 1018.8 |
| 20260508141544 | 61 | 322 | 2.0 | 6.0 | 0.00 | 0.00 | 0.00 | 54 | 1019.0 |
| 20260508140043 | 60 | 0 | 0.0 | 4.0 | 0.00 | 0.00 | 0.00 | 56 | 1018.9 |
| 20260508134543 | 58 | 0 | 0.0 | 6.0 | 0.00 | 0.00 | 0.00 | 60 | 1018.9 |
| 20260508133046 | 57 | 222 | 2.0 | 6.0 | 0.00 | 0.00 | 0.00 | 63 | 1019.0 |
| 20260508131546 | 56 | 303 | 3.0 | 6.0 | 0.00 | 0.00 | 0.00 | 64 | 1019.0 |
| 20260508130056 | 55 | 360 | 1.0 | 4.0 | 0.00 | 0.00 | 0.00 | 68 | 1018.8 |
| 20260508124539 | 55 | 13 | 0.0 | 2.0 | 0.00 | 0.03 | 0.00 | 72 | 1018.8 |
| 20260508123040 | 53 | 347 | 2.0 | 6.0 | 0.00 | 0.03 | 0.00 | 75 | 1018.8 |
| 20260508121547 | 53 | 343 | 1.0 | 3.0 | 0.00 | 0.03 | 0.00 | 79 | 1018.7 |
| 20260508120039 | 52 | 0 | 0.0 | 2.0 | 0.00 | 0.03 | 0.00 | 83 | 1018.4 |
| 20260508114543 | 49 | 0 | 0.0 | 1.0 | 0.00 | 0.13 | 0.00 | 89 | 1018.1 |
| 20260508113045 | 47 | 0 | 0.0 | 2.0 | 0.00 | 0.13 | 0.00 | 90 | 1018.0 |
| 20260508111540 | 47 | 0 | 0.0 | 1.0 | 0.00 | 0.13 | 0.00 | 91 | 1017.7 |
| 20260508110037 | 45 | 27 | 0.0 | 1.0 | 0.00 | 0.13 | 0.00 | 93 | 1017.4 |
| 20260508104611 | 44 | 0 | 0.0 | 1.0 | 0.00 | 0.13 | 0.00 | 93 | 1017.2 |
| 20260508103046 | 44 | 0 | 0.0 | 1.0 | 0.00 | 0.13 | 0.00 | 93 | 1016.8 |
| 20260508101541 | 45 | 0 | 0.0 | 1.0 | 0.00 | 0.13 | 0.00 | 92 | 1016.7 |
| 20260508100047 | 45 | 0 | 0.0 | 0.0 | 0.00 | 0.13 | 0.00 | 91 | 1016.5 |
| 20260508094546 | 46 | 0 | 0.0 | 4.0 | 0.00 | 0.13 | 0.00 | 90 | 1016.5 |
| 20260508093041 | 46 | 34 | 1.0 | 2.0 | 0.00 | 0.13 | 0.00 | 90 | 1016.6 |
| 20260508091550 | 47 | 0 | 0.0 | 1.0 | 0.00 | 0.13 | 0.00 | 88 | 1016.4 |
| 20260508090103 | 48 | 0 | 0.0 | 1.0 | 0.00 | 0.13 | 0.00 | 86 | 1016.5 |
| 20260508084548 | 49 | 0 | 0.0 | 0.0 | 0.00 | 0.15 | 0.00 | 84 | 1016.3 |
| 20260508083104 | 50 | 9 | 0.0 | 5.0 | 0.00 | 0.15 | 0.00 | 83 | 1016.2 |
| 20260508081556 | 52 | 227 | 3.0 | 5.0 | 0.00 | 0.15 | 0.00 | 79 | 1016.1 |
| 20260508080101 | 52 | 0 | 1.0 | 5.0 | 0.00 | 0.15 | 0.00 | 77 | 1015.9 |
| 20260508074544 | 53 | 265 | 2.0 | 6.0 | 0.00 | 0.15 | 0.00 | 76 | 1015.8 |
| 20260508073042 | 54 | 208 | 5.0 | 11.0 | 0.00 | 0.15 | 0.00 | 76 | 1015.6 |
| 20260508071540 | 54 | 227 | 7.0 | 13.0 | 0.00 | 0.15 | 0.00 | 74 | 1015.6 |
| 20260508070120 | 55 | 220 | 8.0 | 12.0 | 0.00 | 0.15 | 0.00 | 73 | 1015.4 |
| 20260508064542 | 55 | 230 | 8.0 | 16.0 | 0.00 | 0.16 | 0.00 | 72 | 1015.3 |
| 20260508063050 | 55 | 226 | 10.0 | 17.0 | 0.00 | 0.16 | 0.00 | 73 | 1015.2 |
| 20260508061547 | 54 | 225 | 8.0 | 12.0 | 0.00 | 0.16 | 0.00 | 74 | 1015.0 |
| 20260508060049 | 55 | 217 | 6.0 | 10.0 | 0.00 | 0.16 | 0.00 | 73 | 1015.1 |
| 20260508054549 | 54 | 219 | 6.0 | 9.0 | 0.00 | 0.21 | 0.00 | 74 | 1015.3 |
| 20260508053101 | 55 | 229 | 5.0 | 10.0 | 0.00 | 0.21 | 0.00 | 73 | 1015.4 |
| 20260508051542 | 54 | 322 | 3.0 | 9.0 | 0.00 | 0.21 | 0.00 | 74 | 1015.2 |
| 20260508050039 | 54 | 240 | 5.0 | 8.0 | 0.00 | 0.21 | 0.00 | 74 | 1015.1 |
| 20260508044545 | 53 | 231 | 3.0 | 6.0 | 0.00 | 0.25 | 0.00 | 78 | 1015.1 |
| 20260508043057 | 54 | 11 | 0.0 | 6.0 | 0.00 | 0.25 | 0.00 | 76 | 1015.0 |
| 20260508041541 | 54 | 348 | 1.0 | 8.0 | 0.00 | 0.25 | 0.00 | 76 | 1015.0 |
| 20260508040040 | 55 | 242 | 3.0 | 9.0 | 0.00 | 0.25 | 0.00 | 73 | 1015.1 |
| 20260508034545 | 56 | 346 | 4.0 | 10.0 | 0.00 | 0.25 | 0.25 | 73 | 1015.1 |
| 20260508033118 | 56 | 227 | 5.0 | 12.0 | 0.00 | 0.25 | 0.25 | 72 | 1015.1 |
| 20260508031551 | 56 | 226 | 11.0 | 17.0 | 0.00 | 0.25 | 0.25 | 72 | 1015.0 |
| 20260508030050 | 54 | 226 | 7.0 | 10.0 | 0.00 | 0.25 | 0.25 | 76 | 1014.9 |
| 20260508024556 | 55 | 321 | 5.0 | 7.0 | 0.00 | 0.28 | 0.25 | 75 | 1014.8 |
| 20260508023046 | 55 | 226 | 5.0 | 12.0 | 0.00 | 0.28 | 0.25 | 75 | 1014.4 |
| 20260508021549 | 55 | 358 | 2.0 | 5.0 | 0.00 | 0.28 | 0.25 | 75 | 1014.6 |
| 20260508020040 | 56 | 0 | 0.0 | 5.0 | 0.00 | 0.28 | 0.25 | 70 | 1014.4 |
| 20260508014540 | 57 | 255 | 2.0 | 6.0 | 0.00 | 0.32 | 0.25 | 70 | 1014.0 |
| 20260508013039 | 57 | 236 | 5.0 | 11.0 | 0.00 | 0.32 | 0.25 | 70 | 1013.9 |
| 20260508011545 | 57 | 211 | 9.0 | 17.0 | 0.00 | 0.32 | 0.25 | 70 | 1013.5 |
| 20260508010043 | 57 | 231 | 9.0 | 17.0 | 0.00 | 0.32 | 0.25 | 69 | 1013.3 |
| 20260508004541 | 57 | 219 | 12.0 | 19.0 | 0.00 | 0.42 | 0.25 | 68 | 1013.0 |
| 20260508003041 | 57 | 217 | 8.0 | 15.0 | 0.00 | 0.42 | 0.25 | 69 | 1012.7 |
| 20260508001538 | 58 | 215 | 12.0 | 19.0 | 0.00 | 0.42 | 0.25 | 68 | 1012.6 |
| 20260508000048 | 59 | 229 | 11.0 | 20.0 | 0.00 | 0.42 | 0.25 | 67 | 1012.4 |
| 20260507234544 | 59 | 209 | 14.0 | 23.0 | 0.00 | 0.45 | 0.25 | 66 | 1012.4 |
| 20260507233042 | 60 | 214 | 15.0 | 25.0 | 0.00 | 0.45 | 0.25 | 67 | 1012.0 |
| 20260507231550 | 60 | 237 | 13.0 | 27.0 | 0.00 | 0.45 | 0.25 | 69 | 1012.0 |
| 20260507230059 | 61 | 160 | 15.0 | 27.0 | 0.00 | 0.45 | 0.25 | 68 | 1011.9 |
| 20260507224546 | 61 | 195 | 17.0 | 26.0 | 0.00 | 0.47 | 0.25 | 68 | 1011.5 |
| 20260507223043 | 62 | 190 | 13.0 | 26.0 | 0.00 | 0.47 | 0.25 | 68 | 1011.3 |
| 20260507221542 | 63 | 233 | 13.0 | 25.0 | 0.00 | 0.47 | 0.25 | 69 | 1011.0 |
| 20260507220042 | 65 | 173 | 13.0 | 21.0 | 0.00 | 0.47 | 0.25 | 67 | 1011.1 |
| 20260507214551 | 66 | 345 | 10.0 | 24.0 | 0.00 | 0.47 | 0.25 | 67 | 1010.5 |
| 20260507213057 | 68 | 216 | 8.0 | 18.0 | 0.00 | 0.47 | 0.25 | 66 | 1009.9 |
| 20260507211546 | 68 | 191 | 12.0 | 21.0 | 0.00 | 0.47 | 0.25 | 66 | 1009.7 |
| 20260507210043 | 68 | 212 | 12.0 | 22.0 | 0.00 | 0.47 | 0.25 | 65 | 1009.5 |
| 20260507204539 | 69 | 223 | 13.0 | 21.0 | 0.00 | 0.47 | 0.25 | 65 | 1009.5 |
| 20260507203040 | 69 | 206 | 13.0 | 21.0 | 0.00 | 0.47 | 0.25 | 66 | 1009.4 |
| 20260507201541 | 71 | 219 | 8.0 | 19.0 | 0.00 | 0.47 | 0.25 | 65 | 1009.3 |
| 20260507200054 | 71 | 254 | 11.0 | 18.0 | 0.00 | 0.47 | 0.25 | 66 | 1009.4 |